Weather History for LKTB - December, 2012

Change the Weather History Date:

Sunday, December 30, 2012

  Actual Average Record
Temperature  
Mean Temperature 28 °F -  
Max Temperature 33 °F 32 °F - ()
Min Temperature 24 °F 23 °F - ()
Degree Days  
Heating Degree Days 36    
Moisture  
Dew Point 24 °F    
Average Humidity 79    
Maximum Humidity 93    
Minimum Humidity 49    
Precipitation  
Precipitation 0.00 in 0.03 in - ()
Sea Level Pressure  
Sea Level Pressure 30.21 in    
Wind  
Wind Speed 6 mph ()    
Max Wind Speed 10 mph    
Max Gust Speed -    
Visibility 5.6 miles    
Events Snow    
T = Trace of Precipitation, MM = Missing Value Source: Averaged Metar Reports

Daily Weather History Graph

Daily Weather History Graph

Search for Another Location

Airport or City:

Trip Planner

Search our weather history database for the weather conditions in past years. The results will help you decide how hot, cold, wet, or windy it might be!

Date:

Astronomy

Dec. 30, 2012 Rise Set
Actual Time 7:47 AM CET 4:04 PM CET
Civil Twilight 7:10 AM CET 4:41 PM CET
Nautical Twilight 6:29 AM CET 5:22 PM CET
Astronomical Twilight 5:51 AM CET 6:00 PM CET
Moon 6:31 PM CET (12/30) 8:35 AM CET (12/30)
Length of Visible Light 9h 30m
Length of Day
8h 16m
Waning Gibbous, 96% of the Moon is Illuminated
Dec 30
Waning Gibbous
Jan 5
Last Quarter
Jan 11
New
Jan 19
First Quarter
Jan 27
Full

Hourly Weather History & Observations

Time (CET) Temp. Windchill Dew Point Humidity Pressure Visibility Wind Dir Wind Speed Gust Speed Precip Events Conditions
12:00 AM 30.2 °F 22.6 °F 19.4 °F 64% 30.21 in - ESE 8.1 mph - N/A   Clear
12:30 AM 30.2 °F 21.3 °F 19.4 °F 64% 30.18 in - ESE 10.4 mph - N/A   Clear
1:00 AM 29 °F - 17 °F 49% 30.26 in 12 mi ESE 6.7 mph - -  
1:00 AM 28.4 °F 20.4 °F 19.4 °F 69% 30.18 in - ESE 8.1 mph - N/A   Clear
1:30 AM 28.4 °F 19.7 °F 19.4 °F 69% 30.18 in - ESE 9.2 mph - N/A   Clear
2:00 AM 28.4 °F 19.1 °F 19.4 °F 69% 30.18 in - SE 10.4 mph - N/A   Clear
2:30 AM 26.6 °F 17.5 °F 19.4 °F 74% 30.18 in - SE 9.2 mph - N/A   Clear
3:00 AM 26.6 °F 18.2 °F 19.4 °F 74% 30.18 in - ESE 8.1 mph - N/A   Clear
3:30 AM 28.4 °F 19.7 °F 19.4 °F 69% 30.18 in - ESE 9.2 mph - N/A   Clear
4:00 AM 26.6 °F 19.1 °F 19.4 °F 74% 30.18 in - ESE 6.9 mph - N/A   Clear
4:30 AM 26.6 °F 18.2 °F 19.4 °F 74% 30.18 in - ESE 8.1 mph - N/A   Clear
5:00 AM 24.8 °F 16.9 °F 19.4 °F 80% 30.18 in - ESE 6.9 mph - N/A   Clear
5:30 AM 24.8 °F 19.1 °F 19.4 °F 80% 30.18 in - ESE 4.6 mph - N/A   Clear
5:44 AM 24.8 °F 19.1 °F 19.4 °F 80% 30.18 in - ESE 4.6 mph - N/A   Clear
6:00 AM 24.8 °F 17.9 °F 19.4 °F 80% 30.18 in - East 5.8 mph - N/A   Clear
6:30 AM 24.8 °F 17.9 °F 19.4 °F 80% 30.18 in - East 5.8 mph - N/A   Clear
7:00 AM 25 °F - 19 °F 69% 30.26 in 11 mi East 6.7 mph - -   Scattered Clouds
7:00 AM 24.8 °F 17.9 °F 19.4 °F 80% 30.18 in - East 5.8 mph - N/A   Clear
7:30 AM 26.6 °F 19.1 °F 21.2 °F 80% 30.18 in - ESE 6.9 mph - N/A   Clear
8:00 AM 24.8 °F 16.9 °F 21.2 °F 86% 30.18 in - ESE 6.9 mph - N/A   Clear
8:30 AM 26.6 °F 19.1 °F 21.2 °F 80% 30.18 in - East 6.9 mph - N/A   Clear
9:00 AM 28.4 °F 22.2 °F 23.0 °F 80% 30.21 in - ESE 5.8 mph - N/A   Clear
9:30 AM 28.4 °F 22.2 °F 24.8 °F 86% 30.21 in - ESE 5.8 mph - N/A   Clear
10:00 AM 30.2 °F 25.4 °F 24.8 °F 80% 30.24 in - SE 4.6 mph - N/A   Clear
10:30 AM 32.0 °F 25.6 °F 24.8 °F 75% 30.21 in - SE 6.9 mph - N/A   Clear
11:00 AM 32.0 °F 25.6 °F 24.8 °F 75% 30.21 in 6.2 mi SE 6.9 mph - N/A   Partly Cloudy
11:30 AM 32.0 °F 26.4 °F 24.8 °F 75% 30.21 in 6.2 mi SE 5.8 mph - N/A   Mostly Cloudy
12:00 PM 32.0 °F 25.6 °F 26.6 °F 80% 30.21 in 6.2 mi SE 6.9 mph - N/A   Mostly Cloudy
12:19 PM 32.0 °F 26.4 °F 26.6 °F 80% 30.21 in 6.2 mi SSE 5.8 mph - N/A   Mostly Cloudy
12:30 PM 32.0 °F 25.6 °F 26.6 °F 80% 30.18 in 6.2 mi SE 6.9 mph - N/A   Overcast
1:00 PM 33 °F - 26 °F 67% 30.26 in 7 mi SSE 4.5 mph - -   Overcast
1:00 PM 32.0 °F 26.4 °F 26.6 °F 80% 30.21 in 6.2 mi SE 5.8 mph - N/A   Overcast
1:30 PM 32.0 °F 27.5 °F 26.6 °F 80% 30.21 in 6.2 mi SE 4.6 mph - N/A   Overcast
2:00 PM 33.8 °F - 28.4 °F 81% 30.21 in 6.2 mi SE 2.3 mph - N/A   Mostly Cloudy
2:30 PM 33.8 °F - 26.6 °F 75% 30.21 in 6.2 mi SSE 2.3 mph - N/A Snow Light Snow
3:00 PM 33.8 °F 29.6 °F 26.6 °F 75% 30.18 in 6.2 mi SE 4.6 mph - N/A Snow Light Snow
3:30 PM 33.8 °F 29.6 °F 28.4 °F 81% 30.21 in 6.2 mi SSE 4.6 mph - N/A   Scattered Clouds
4:00 PM 32.0 °F 26.4 °F 28.4 °F 87% 30.21 in 6.2 mi South 5.8 mph - N/A   Partly Cloudy
4:30 PM 32.0 °F 26.4 °F 28.4 °F 87% 30.21 in 5.0 mi South 5.8 mph - N/A   Partly Cloudy
5:00 PM 32.0 °F 28.7 °F 28.4 °F 87% 30.21 in 5.0 mi South 3.5 mph - N/A   Partly Cloudy
5:30 PM 32.0 °F 27.5 °F 28.4 °F 87% 30.21 in 5.0 mi South 4.6 mph - N/A   Unknown
6:00 PM 32.0 °F - 28.4 °F 87% 30.21 in 5.0 mi Variable 2.3 mph - N/A   Unknown
6:30 PM 32.0 °F 28.7 °F 28.4 °F 87% 30.21 in 5.0 mi South 3.5 mph - N/A   Unknown
7:00 PM 31 °F - 27 °F 80% 30.30 in 5 mi South 2.2 mph - -   Mist
7:00 PM 32.0 °F - 28.4 °F 87% 30.24 in 5.0 mi South 2.3 mph - N/A   Unknown
7:30 PM 32.0 °F - 28.4 °F 87% 30.24 in 4.3 mi South 2.3 mph - N/A   Unknown
8:00 PM 32.0 °F 27.5 °F 28.4 °F 87% 30.24 in 4.3 mi West 4.6 mph - N/A   Mostly Cloudy
8:30 PM 30.2 °F 26.7 °F 28.4 °F 93% 30.24 in 4.3 mi South 3.5 mph - N/A   Scattered Clouds
9:00 PM 30.2 °F - 28.4 °F 93% 30.24 in 4.3 mi Calm Calm - N/A   Unknown
9:30 PM 30.2 °F 26.7 °F 26.6 °F 86% 30.24 in 3.7 mi NE 3.5 mph - N/A   Unknown
10:00 PM 30.2 °F - 26.6 °F 86% 30.24 in 3.7 mi Calm Calm - N/A   Unknown
10:30 PM 28.4 °F - 26.6 °F 93% 30.27 in 3.7 mi Variable 1.2 mph - N/A   Unknown
11:00 PM 30.2 °F - 26.6 °F 86% 30.27 in 3.7 mi Variable 1.2 mph - N/A   Unknown
11:30 PM 28.4 °F - 26.6 °F 93% 30.27 in 3.7 mi NNE 2.3 mph - N/A   Partly Cloudy